Location: Unspecified
(30.2600°N, 0.0000°E)
Time: 02:37:59
(UTC+00:00)

SO-50 - Visible Passes

Search period start: 04 April 2026 00:00
Search period end: 14 April 2026 00:00
Orbit: 568 x 673 km, 64.6° (Epoch: 29 March)

Date Brightness Start Highest point End Pass type
(mag) Time Alt. Az. Time Alt. Az. Time Alt. Az.
4 Apr ? 21:01:40 10° N 21:02:33 15° N 21:02:33 15° N visible
5 Apr ? 21:18:57 10° NNW 21:20:00 16° NNW 21:20:00 16° NNW visible
6 Apr ? 19:58:01 10° N 20:00:20 16° NE 20:00:20 16° NE visible
6 Apr ? 21:36:46 10° NW 21:37:30 14° NW 21:37:30 14° NW visible
7 Apr ? 20:14:38 10° N 20:17:54 31° NNE 20:17:54 31° NNE visible
8 Apr ? 20:31:56 10° NNW 20:35:31 51° NNW 20:35:31 51° NNW visible
9 Apr ? 19:10:56 10° N 19:14:06 17° NE 19:16:03 14° E visible
9 Apr ? 20:49:46 10° NW 20:53:14 37° W 20:53:14 37° W visible
10 Apr ? 19:27:35 10° N 19:31:58 36° ENE 19:33:50 26° ESE visible
10 Apr ? 21:08:25 10° WNW 21:11:01 18° W 21:11:01 18° W visible
11 Apr ? 19:44:54 10° NNW 19:49:39 83° ENE 19:51:42 33° SSE visible
12 Apr ? 20:02:44 10° NW 20:07:09 40° WSW 20:09:40 22° S visible
13 Apr ? 20:21:25 10° WNW 20:24:30 17° WSW 20:27:31 10° SSW visible
